Кок-Янгак

Киргизия     41˚01′58″N   73˚12′00″E
темп.,
°C
ветер,
м/с
пор.,
м/с
влажн.,
%
обл.,
%
осадки,
мм/ч
давл.,
гПа
погр.,
м
6 декабря, вс
вс600:00−5˚всв3369100 0.0 103325
03:00−6˚всв1268100 0.0 103321
06:00−5˚всв1272100 0.0 103323
09:00−5˚всв2275100 0.0 103426
12:00−2˚в017899 0.0 103265
15:00−2˚з118811 0.0 103058
18:00−6˚всв228119 0.0 103221
21:00−6˚всв2368100 0.0 103222
7 декабря, пн
пн700:00−6˚всв346599 0.0 103126
03:00−6˚всв3366100 0.0 103027
06:00−5˚всв3366100 0.0 102826
09:00−4˚всв2270100 0.0 102725
12:00−2˚в0077100 0.1 102650
15:00−1˚ююв1187100 0.2 1025182
18:00−2˚всв1295100 0.5 102728
21:00−2˚з0099100 1.0 102821
8 декабря, вт
вт800:00−3˚з1199100 3.1 102949
03:00−3˚ююз1198100 1.7 102931
06:00−4˚з1198100 3.3 102924
09:00−4˚ююв0098100 1.4 103044
12:00−2˚зсз1197100 2.2 1028126
15:00−2˚зюз2299100 1.3 1026156
18:00−3˚зюз1298100 3.6 102986
21:00−4˚св0198100 2.0 103222
9 декабря, ср
ср900:00−4˚вюв1196100 2.8 103321
03:00−4˚всв1194100 0.2 103421
06:00−4˚ссв0197100 1.0 103421
09:00−5˚всв1290100 0.3 103523
12:00−2˚ссв128598 0.3 1032110
15:00−2˚ссв029130 0.0 103097
18:00−6˚всв238431 0.0 103138
21:00−6˚всв34730 0.0 103243
10 декабря, чт
чт1000:00−6˚всв457010 0.0 103159
03:00−6˚всв447052 0.0 103149
06:00−7˚всв446927 0.0 103139
09:00−7˚всв44680 0.0 103238
12:00−2˚всв227817 0.0 102963
15:00−2˚з018253 0.0 102931
18:00−5˚всв237174 0.0 103122
21:00−6˚всв336474 0.0 103326